Location: Austin
(30.3000°N, 97.7500°W)
Time: 07:14:29
(UTC-05:00)

SJ 16-02 - Pass Details

Date: 16 June 2025
Orbit: 587 x 596 km, 75.0° (Epoch: 08 July)

Event Time Altitude Azimuth Distance (km) Brightness Sun altitude
Exits shadow 01:50:18 15° 346° (NNW) 1,645 4.1 -36.2°
Drops below altitude 10° 01:51:09 10° 352° (N) 1,934 4.6 -36.1°
Sets 01:53:35 0° 3° (N) 2,839 5.8 -36.1°
